HISPASAT 1C

Satellite information

Favourite Embed

Satellite Type and Status

PAYLOADIN ORBIT

Key statistics

Satellite HISPASAT 1C at a glance.

Uptime

9397

Days in orbit

Revolutions

≈ 1.0

Per day

Orbit

OTHER

Other

Inclination

7.8

Latest

Satellite identification and parameters

Extended collection of information and parameters for HISPASAT 1C.

Object identification

Identified? True

Debris? False

Object name: HISPASAT 1C

International designator: 2000-007A

Object number (NORAD): 26071

Object ID (CCSDS): 26071

Country: SPAIN (SPN)

Current information (Y/N): Y

RCS size: LARGE

Orbital parameters

Period: 1451.508 minutes

Inclination: 7.8106 deg

SMA: 42465.849 km

Apoapsis: 36121.095 km

Periapsis: 36054.333 km

RAAN: 66.2297 deg

Eccentricy: 0.00078607

Argument of periapsis: 180.527 deg

Mean anomaly: 19.4223 deg

Mean motion: 0.99207166 rev/day

Mean motion (dot): -0.00000212 rev/day2

B* drag term: 0.0 1/REarth

Two-line elements (TLE)

Creation date: Oct. 26, 2025, 2:54 a.m.

Reference frame: TEME

Reference center: EARTH

Epoch: Oct. 25, 2025, 4:28 p.m. UTC

TLE line 0: 0 HISPASAT 1C

TLE line 1: 1 26071U 00007A 25298.68619312 -.00000212 00000-0 00000-0 0 9991

TLE line 2: 2 26071 7.8106 66.2297 0007861 180.5270 19.4223 0.99207166 44961

Live tracking on map

Real-time ground track for satellite HISPASAT 1C.

In-orbit conjunctions

There are no conjunctions computed for HISPASAT 1C, at the moment. Check back to stay up to date, as we update our databases every day.

Go to all conjunctions

Associated space launch

Hispasat 1C and 1D are powerful telecommunications satellite based on a Spacebus-3000B2 platform with 28 Ku-band channels built by Alcatel Space for the Spanish company HISPASAT S.A. They offer pan-European and pan-American multi-area coverage. This coverage can extend to certain areas of North Africa. The flexibility offered by the satellite's design will allow users to benefit from intercontinental links between Europe and the Americas.

HISPASAT 1C was lifted into orbit during the mission ‘Atlas IIAS | Hispasat 1C’, on board a Atlas IIAS space rocket.

The launch took place on Feb. 3, 2000, 11:30 p.m. from Launch Complex 36B.

For more information about the launch, click the button.

Launch to space Atlas IIAS | Hispasat 1C
Atlas IIAS | Hispasat 1C

Agency: N/A

Status: Launch Successful

Launch date: Feb. 3, 2000, 11:30 p.m. UTC

Rocket: Atlas IIAS

Launch pad: Launch Complex 36B

Location: Cape Canaveral SFS, FL, USA

...

Latest news about this satellite

There are no fresh news available about this satellite. Check back as we update our databases every day.


Newsletter sign-up

Weekly statistics, charts and insights to help you stay on top of the space industry.